Location: Unspecified
(0.0000°N, 0.0000°E)
Time: 16:35:19
(UTC+02:00)

H-2A R/B - Visible Passes

Search period start: 25 April 2018 00:00
Search period end: 05 May 2018 00:00
Orbit: 253 x 32991 km, 28.1° (Epoch: 24 April)

Date Brightness Start Highest point End Pass type
(mag) Time Alt. Az. Time Alt. Az. Time Alt. Az.
25 Apr 5.6 13:28:47 10° N 20:05:41 32° ESE 21:47:22 16° SE visible
26 Apr 6.2 18:36:58 10° NW 20:01:40 83° W 03:36:06 10° ESE visible
27 Apr 5.8 13:41:40 10° N 20:15:42 37° ESE 22:00:31 20° SE visible
28 Apr 6.2 18:51:12 10° WNW 20:16:37 77° W 03:50:08 10° ESE visible
29 Apr 5.9 13:54:40 10° NNW 20:25:03 41° SE 22:13:42 24° SE visible
30 Apr 5.7 19:05:31 10° WNW 20:31:45 70° W 04:03:59 10° ESE visible
01 May 6.0 14:07:40 10° NNW 20:33:27 45° SE 22:26:52 27° SE visible
02 May 5.5 19:19:55 10° WNW 20:46:53 64° W 04:17:39 10° ESE visible
03 May 6.1 14:20:38 10° NNW 20:40:24 48° SE 22:40:00 31° SE visible
